Location: Lincolnton
(35.4660°N, 81.2500°W)
Time: 12:16:35
(UTC-04:00)

HST - Visible Passes

Search period start: 01 October 2014 00:00
Search period end: 11 October 2014 00:00
Orbit: 547 x 551 km, 28.5° (Epoch: 30 September)

Date Brightness Start Highest point End Pass type
(mag) Time Alt. Az. Time Alt. Az. Time Alt. Az.
03 Oct 3.5 06:22:57 10° SSE 06:23:47 11° SSE 06:24:38 10° SE visible
04 Oct 3.3 06:14:28 10° S 06:16:32 13° SSE 06:18:37 10° SE visible
05 Oct 3.1 06:06:38 10° SSW 06:09:18 17° SSE 06:11:58 10° ESE visible
06 Oct 2.8 06:00:05 15° SSW 06:02:03 20° SSE 06:05:06 10° ESE visible
07 Oct 2.5 05:53:30 20° SSW 05:54:49 23° SSE 05:58:07 10° ESE visible
08 Oct 2.2 05:46:53 24° S 05:47:35 26° S 05:51:04 10° ESE visible
09 Oct 2.1 05:40:13 28° S 05:40:21 28° S 05:43:57 10° ESE visible
10 Oct 2.1 05:33:32 29° SSE 05:33:32 29° SSE 05:36:47 10° ESE visible
